| time (UTC) | temp F | wind direction | speed MPH | gust MPH | rain 1hr in | rain 24hr in | rain mn in | humidity % | barometer mb |
| 20260503184500 | 86 | 176 | 6.0 | 10.0 | 0.00 | 0.00 | 0.00 | 21 | 1016.4 |
| 20260503183956 | 86 | 278 | 7.0 | 11.0 | 0.00 | 0.00 | 0.00 | 21 | 1016.5 |
| 20260503183453 | 85 | 158 | 6.0 | 15.0 | 0.00 | 0.00 | 0.00 | 23 | 1016.7 |
| 20260503182950 | 85 | 213 | 8.0 | 10.0 | 0.00 | 0.00 | 0.00 | 24 | 1016.6 |
| 20260503182449 | 85 | 214 | 4.0 | 9.0 | 0.00 | 0.00 | 0.00 | 25 | 1016.4 |
| 20260503181946 | 85 | 256 | 8.0 | 9.0 | 0.00 | 0.00 | 0.00 | 25 | 1016.6 |
| 20260503181443 | 84 | 179 | 6.0 | 11.0 | 0.00 | 0.00 | 0.00 | 28 | 1016.7 |
| 20260503180939 | 85 | 310 | 3.0 | 10.0 | 0.00 | 0.00 | 0.00 | 28 | 1016.7 |
| 20260503180438 | 85 | 215 | 6.0 | 10.0 | 0.00 | 0.00 | 0.00 | 28 | 1016.9 |
| 20260503175934 | 83 | 232 | 5.0 | 10.0 | 0.00 | 0.00 | 0.00 | 28 | 1016.9 |
| 20260503175432 | 83 | 241 | 11.0 | 14.0 | 0.00 | 0.00 | 0.00 | 29 | 1017.1 |
| 20260503174928 | 83 | 145 | 7.0 | 10.0 | 0.00 | 0.00 | 0.00 | 28 | 1017.0 |
| 20260503174426 | 82 | 224 | 6.0 | 9.0 | 0.00 | 0.00 | 0.00 | 30 | 1017.3 |
| 20260503173926 | 83 | 177 | 8.0 | 13.0 | 0.00 | 0.00 | 0.00 | 30 | 1017.2 |
| 20260503173423 | 83 | 179 | 6.0 | 11.0 | 0.00 | 0.00 | 0.00 | 30 | 1017.3 |
| 20260503172920 | 83 | 242 | 3.0 | 8.0 | 0.00 | 0.00 | 0.00 | 30 | 1017.7 |
| 20260503172417 | 82 | 191 | 4.0 | 10.0 | 0.00 | 0.00 | 0.00 | 33 | 1017.8 |
| 20260503171913 | 82 | 216 | 5.0 | 9.0 | 0.00 | 0.00 | 0.00 | 32 | 1017.7 |
| 20260503171410 | 81 | 174 | 7.0 | 11.0 | 0.00 | 0.00 | 0.00 | 32 | 1017.8 |
| 20260503170908 | 81 | 183 | 5.0 | 7.0 | 0.00 | 0.00 | 0.00 | 34 | 1017.8 |
| 20260503170403 | 80 | 187 | 3.0 | 9.0 | 0.00 | 0.00 | 0.00 | 35 | 1018.0 |
| 20260503150756 | 71 | 179 | 4.0 | 6.0 | 0.00 | 0.00 | 0.00 | 44 | 1018.2 |
| 20260503150252 | 71 | 168 | 4.0 | 6.0 | 0.00 | 0.00 | 0.00 | 45 | 1018.2 |
| 20260503140217 | 65 | 245 | 7.0 | 10.0 | 0.00 | 0.00 | 0.00 | 54 | 1018.5 |
| 20260503131146 | 59 | 177 | 2.0 | 4.0 | 0.00 | 0.00 | 0.00 | 68 | 1018.4 |
| 20260503130643 | 59 | 170 | 3.0 | 7.0 | 0.00 | 0.00 | 0.00 | 69 | 1018.4 |
| 20260503130141 | 58 | 175 | 2.0 | 3.0 | 0.00 | 0.00 | 0.00 | 70 | 1018.5 |
| 20260503120106 | 53 | 198 | 1.0 | 2.0 | 0.00 | 0.00 | 0.00 | 78 | 1018.1 |
| 20260503110533 | 53 | 115 | 0.0 | 2.0 | 0.00 | 0.00 | 0.00 | 75 | 1018.1 |
| 20260503090420 | 56 | 113 | 1.0 | 1.0 | 0.00 | 0.00 | 0.00 | 65 | 1019.3 |
| 20260503081347 | 56 | 175 | 0.0 | 0.0 | 0.00 | 0.00 | 0.00 | 66 | 1019.5 |
| 20260503080843 | 56 | 145 | 0.0 | 0.0 | 0.00 | 0.00 | 0.00 | 66 | 1019.8 |
| 20260503080341 | 55 | 123 | 0.0 | 0.0 | 0.00 | 0.00 | 0.00 | 66 | 1019.8 |
| 20260503072817 | 56 | 158 | 0.0 | 1.0 | 0.00 | 0.00 | 0.00 | 64 | 1019.8 |
| 20260503072314 | 56 | 102 | 0.0 | 0.0 | 0.00 | 0.00 | 0.00 | 64 | 1019.9 |
| 20260503071809 | 56 | 157 | 0.0 | 1.0 | 0.00 | 0.00 | 0.00 | 64 | 1020.1 |
| 20260503071302 | 57 | 111 | 1.0 | 1.0 | 0.00 | 0.00 | 0.00 | 63 | 1020.3 |
| 20260503070757 | 57 | 95 | 0.0 | 1.0 | 0.00 | 0.00 | 0.00 | 63 | 1020.2 |
| 20260503070256 | 57 | 111 | 0.0 | 0.0 | 0.00 | 0.00 | 0.00 | 63 | 1020.3 |
| 20260503060215 | 57 | 130 | 0.0 | 2.0 | 0.00 | 0.00 | 0.00 | 59 | 1020.8 |
| 20260503054702 | 58 | 153 | 0.0 | 0.0 | 0.00 | 0.00 | 0.00 | 59 | 1020.6 |
| 20260503054159 | 58 | 99 | 0.0 | 1.0 | 0.00 | 0.00 | 0.00 | 59 | 1020.9 |
| 20260503053657 | 58 | 141 | 0.0 | 0.0 | 0.00 | 0.00 | 0.00 | 59 | 1020.6 |
| 20260503053155 | 58 | 131 | 0.0 | 0.0 | 0.00 | 0.00 | 0.00 | 58 | 1020.8 |
| 20260503052651 | 58 | 134 | 0.0 | 0.0 | 0.00 | 0.00 | 0.00 | 58 | 1020.6 |
| 20260503052148 | 58 | 146 | 0.0 | 0.0 | 0.00 | 0.00 | 0.00 | 57 | 1020.8 |
| 20260503051643 | 59 | 144 | 0.0 | 0.0 | 0.00 | 0.00 | 0.00 | 57 | 1020.9 |
| 20260503051141 | 59 | 127 | 0.0 | 0.0 | 0.00 | 0.00 | 0.00 | 56 | 1020.5 |
| 20260503050638 | 59 | 142 | 0.0 | 0.0 | 0.00 | 0.00 | 0.00 | 56 | 1020.6 |
| 20260503050134 | 59 | 129 | 0.0 | 1.0 | 0.00 | 0.00 | 0.00 | 56 | 1020.5 |
| 20260503045632 | 59 | 129 | 0.0 | 1.0 | 0.00 | 0.00 | 0.00 | 55 | 1020.4 |
| 20260503045129 | 59 | 116 | 0.0 | 0.0 | 0.00 | 0.00 | 0.00 | 55 | 1020.5 |
| 20260503044625 | 60 | 170 | 0.0 | 0.0 | 0.00 | 0.00 | 0.00 | 55 | 1020.5 |
| 20260503044123 | 60 | 126 | 0.0 | 1.0 | 0.00 | 0.00 | 0.00 | 55 | 1020.3 |
| 20260503043620 | 59 | 134 | 0.0 | 0.0 | 0.00 | 0.00 | 0.00 | 56 | 1020.4 |
| 20260503043116 | 60 | 114 | 0.0 | 0.0 | 0.00 | 0.00 | 0.00 | 56 | 1020.4 |
| 20260503042613 | 60 | 125 | 0.0 | 0.0 | 0.00 | 0.00 | 0.00 | 56 | 1020.5 |
| 20260503042109 | 59 | 70 | 0.0 | 0.0 | 0.00 | 0.00 | 0.00 | 57 | 1020.2 |
| 20260503041606 | 60 | 119 | 0.0 | 0.0 | 0.00 | 0.00 | 0.00 | 57 | 1020.2 |
| 20260503041104 | 60 | 131 | 0.0 | 0.0 | 0.00 | 0.00 | 0.00 | 57 | 1020.5 |
| 20260503040601 | 60 | 127 | 0.0 | 0.0 | 0.00 | 0.00 | 0.00 | 56 | 1020.3 |
| 20260503040058 | 61 | 128 | 0.0 | 2.0 | 0.00 | 0.00 | 0.00 | 55 | 1020.2 |
| 20260503035554 | 61 | 133 | 0.0 | 1.0 | 0.00 | 0.00 | 0.00 | 55 | 1020.4 |
| 20260503035052 | 61 | 108 | 0.0 | 1.0 | 0.00 | 0.00 | 0.00 | 55 | 1020.3 |
| 20260503034549 | 61 | 100 | 0.0 | 1.0 | 0.00 | 0.00 | 0.00 | 54 | 1020.4 |
| 20260503034046 | 62 | 98 | 0.0 | 3.0 | 0.00 | 0.00 | 0.00 | 52 | 1020.3 |
| 20260503033543 | 62 | 74 | 0.0 | 2.0 | 0.00 | 0.00 | 0.00 | 52 | 1020.3 |
| 20260503033041 | 62 | 110 | 1.0 | 2.0 | 0.00 | 0.00 | 0.00 | 51 | 1020.4 |
| 20260503032539 | 62 | 125 | 0.0 | 0.0 | 0.00 | 0.00 | 0.00 | 51 | 1020.5 |
| 20260503032037 | 63 | 87 | 1.0 | 1.0 | 0.00 | 0.00 | 0.00 | 49 | 1020.4 |
| 20260503031535 | 63 | 112 | 0.0 | 2.0 | 0.00 | 0.00 | 0.00 | 49 | 1020.2 |
| 20260503031032 | 64 | 107 | 1.0 | 1.0 | 0.00 | 0.00 | 0.00 | 48 | 1020.2 |
| 20260503030528 | 64 | 115 | 0.0 | 0.0 | 0.00 | 0.00 | 0.00 | 48 | 1020.1 |
| 20260503030025 | 64 | 110 | 0.0 | 2.0 | 0.00 | 0.00 | 0.00 | 47 | 1020.1 |
| 20260503025521 | 64 | 82 | 1.0 | 4.0 | 0.00 | 0.00 | 0.00 | 47 | 1020.0 |
| 20260503025020 | 64 | 86 | 1.0 | 1.0 | 0.00 | 0.00 | 0.00 | 47 | 1020.2 |
| 20260503024515 | 65 | 101 | 0.0 | 2.0 | 0.00 | 0.00 | 0.00 | 46 | 1020.1 |
| 20260503024013 | 65 | 86 | 1.0 | 1.0 | 0.00 | 0.00 | 0.00 | 45 | 1020.0 |
| 20260503023509 | 65 | 93 | 1.0 | 4.0 | 0.00 | 0.00 | 0.00 | 45 | 1020.1 |
| 20260503023007 | 66 | 101 | 1.0 | 1.0 | 0.00 | 0.00 | 0.00 | 45 | 1020.0 |
| 20260503022502 | 66 | 102 | 0.0 | 1.0 | 0.00 | 0.00 | 0.00 | 45 | 1020.1 |
| 20260503021957 | 66 | 74 | 1.0 | 4.0 | 0.00 | 0.00 | 0.00 | 45 | 1019.9 |
| 20260503021454 | 66 | 56 | 3.0 | 3.0 | 0.00 | 0.00 | 0.00 | 45 | 1019.9 |
| 20260503020951 | 66 | 73 | 1.0 | 2.0 | 0.00 | 0.00 | 0.00 | 45 | 1019.9 |
| 20260503020449 | 66 | 79 | 2.0 | 3.0 | 0.00 | 0.00 | 0.00 | 45 | 1019.6 |
| 20260503015945 | 66 | 57 | 0.0 | 2.0 | 0.00 | 0.00 | 0.00 | 45 | 1019.8 |
| 20260503015442 | 67 | 63 | 2.0 | 3.0 | 0.00 | 0.00 | 0.00 | 45 | 1019.7 |
| 20260503014938 | 67 | 64 | 2.0 | 4.0 | 0.00 | 0.00 | 0.00 | 44 | 1019.7 |
| 20260503014435 | 67 | 99 | 1.0 | 2.0 | 0.00 | 0.00 | 0.00 | 44 | 1019.6 |
| 20260503013933 | 67 | 111 | 0.0 | 1.0 | 0.00 | 0.00 | 0.00 | 43 | 1019.5 |
| 20260503013430 | 68 | 101 | 0.0 | 1.0 | 0.00 | 0.00 | 0.00 | 43 | 1019.6 |
| 20260503012927 | 68 | 94 | 0.0 | 1.0 | 0.00 | 0.00 | 0.00 | 42 | 1019.5 |
| 20260503012426 | 68 | 93 | 1.0 | 2.0 | 0.00 | 0.00 | 0.00 | 41 | 1019.5 |
| 20260503011921 | 69 | 92 | 0.0 | 1.0 | 0.00 | 0.00 | 0.00 | 41 | 1019.5 |
| 20260503011418 | 69 | 111 | 0.0 | 1.0 | 0.00 | 0.00 | 0.00 | 40 | 1019.6 |
| 20260503010915 | 69 | 87 | 1.0 | 3.0 | 0.00 | 0.00 | 0.00 | 40 | 1019.4 |
| 20260503010412 | 70 | 47 | 0.0 | 2.0 | 0.00 | 0.00 | 0.00 | 39 | 1019.3 |
| 20260503005909 | 70 | 109 | 0.0 | 4.0 | 0.00 | 0.00 | 0.00 | 38 | 1019.5 |
| 20260503005407 | 70 | 96 | 0.0 | 3.0 | 0.00 | 0.00 | 0.00 | 37 | 1019.4 |
| 20260503004903 | 70 | 116 | 1.0 | 2.0 | 0.00 | 0.00 | 0.00 | 37 | 1019.3 |
| 20260503004400 | 71 | 70 | 0.0 | 1.0 | 0.00 | 0.00 | 0.00 | 37 | 1019.4 |
| 20260503003858 | 71 | 97 | 0.0 | 2.0 | 0.00 | 0.00 | 0.00 | 37 | 1019.5 |
| 20260503003354 | 71 | 58 | 0.0 | 1.0 | 0.00 | 0.00 | 0.00 | 37 | 1019.2 |
| 20260503002851 | 71 | 33 | 1.0 | 3.0 | 0.00 | 0.00 | 0.00 | 37 | 1019.3 |
| 20260503002349 | 72 | 83 | 1.0 | 2.0 | 0.00 | 0.00 | 0.00 | 36 | 1019.3 |
| 20260503001845 | 73 | 71 | 1.0 | 3.0 | 0.00 | 0.00 | 0.00 | 36 | 1019.3 |
| 20260503001341 | 73 | 39 | 1.0 | 2.0 | 0.00 | 0.00 | 0.00 | 34 | 1019.2 |
| 20260503000839 | 73 | 14 | 2.0 | 3.0 | 0.00 | 0.00 | 0.00 | 35 | 1019.2 |
| 20260503000336 | 73 | 338 | 2.0 | 3.0 | 0.00 | 0.00 | 0.00 | 34 | 1019.3 |
| 20260502235832 | 74 | 27 | 3.0 | 6.0 | 0.00 | 0.00 | 0.00 | 34 | 1019.4 |
| 20260502235324 | 73 | 58 | 1.0 | 3.0 | 0.00 | 0.00 | 0.00 | 35 | 1019.4 |
| 20260502234821 | 73 | 162 | 0.0 | 1.0 | 0.00 | 0.00 | 0.00 | 35 | 1019.3 |
| 20260502234318 | 74 | 17 | 1.0 | 2.0 | 0.00 | 0.00 | 0.00 | 34 | 1019.4 |
| 20260502233814 | 74 | 63 | 0.0 | 4.0 | 0.00 | 0.00 | 0.00 | 34 | 1019.3 |
| 20260502233311 | 75 | 100 | 0.0 | 2.0 | 0.00 | 0.00 | 0.00 | 34 | 1019.4 |
| 20260502232808 | 74 | 182 | 0.0 | 1.0 | 0.00 | 0.00 | 0.00 | 34 | 1019.3 |
| 20260502232305 | 74 | 45 | 2.0 | 7.0 | 0.00 | 0.00 | 0.00 | 34 | 1019.5 |
| 20260502231800 | 75 | 333 | 0.0 | 2.0 | 0.00 | 0.00 | 0.00 | 34 | 1019.3 |
| 20260502231258 | 75 | 116 | 0.0 | 1.0 | 0.00 | 0.00 | 0.00 | 34 | 1019.5 |
| 20260502230756 | 75 | 236 | 0.0 | 3.0 | 0.00 | 0.00 | 0.00 | 33 | 1019.6 |
| 20260502230255 | 74 | 351 | 1.0 | 6.0 | 0.00 | 0.00 | 0.00 | 35 | 1019.4 |
| 20260502225751 | 75 | 29 | 2.0 | 4.0 | 0.00 | 0.00 | 0.00 | 34 | 1019.5 |
| 20260502225248 | 74 | 75 | 1.0 | 2.0 | 0.00 | 0.00 | 0.00 | 34 | 1019.5 |
| 20260502224744 | 74 | 93 | 3.0 | 4.0 | 0.00 | 0.00 | 0.00 | 34 | 1019.5 |
| 20260502224241 | 76 | 11 | 1.0 | 6.0 | 0.00 | 0.00 | 0.00 | 33 | 1019.5 |
| 20260502223738 | 76 | 39 | 1.0 | 3.0 | 0.00 | 0.00 | 0.00 | 34 | 1019.6 |
| 20260502223236 | 75 | 320 | 3.0 | 4.0 | 0.00 | 0.00 | 0.00 | 34 | 1019.7 |
| 20260502222734 | 75 | 357 | 2.0 | 6.0 | 0.00 | 0.00 | 0.00 | 35 | 1019.7 |
| 20260502222230 | 75 | 101 | 2.0 | 3.0 | 0.00 | 0.00 | 0.00 | 33 | 1019.7 |
| 20260502221726 | 76 | 77 | 1.0 | 6.0 | 0.00 | 0.00 | 0.00 | 35 | 1019.5 |
| 20260502221223 | 76 | 34 | 2.0 | 3.0 | 0.00 | 0.00 | 0.00 | 33 | 1019.7 |
| 20260502220719 | 77 | 236 | 2.0 | 2.0 | 0.00 | 0.00 | 0.00 | 32 | 1019.8 |
| 20260502220215 | 76 | 230 | 0.0 | 3.0 | 0.00 | 0.00 | 0.00 | 33 | 1019.6 |
| 20260502215713 | 76 | 338 | 3.0 | 6.0 | 0.00 | 0.00 | 0.00 | 31 | 1019.9 |
| 20260502215209 | 77 | 332 | 4.0 | 6.0 | 0.00 | 0.00 | 0.00 | 32 | 1020.0 |
| 20260502214707 | 77 | 182 | 3.0 | 3.0 | 0.00 | 0.00 | 0.00 | 32 | 1020.0 |
| 20260502214204 | 76 | 68 | 2.0 | 2.0 | 0.00 | 0.00 | 0.00 | 33 | 1019.8 |
| 20260502213701 | 76 | 73 | 2.0 | 4.0 | 0.00 | 0.00 | 0.00 | 34 | 1020.1 |
| 20260502213158 | 76 | 220 | 3.0 | 6.0 | 0.00 | 0.00 | 0.00 | 34 | 1020.0 |
| 20260502212657 | 77 | 304 | 1.0 | 2.0 | 0.00 | 0.00 | 0.00 | 32 | 1020.3 |
| 20260502212154 | 77 | 309 | 2.0 | 6.0 | 0.00 | 0.00 | 0.00 | 33 | 1020.1 |
| 20260502211650 | 78 | 193 | 1.0 | 4.0 | 0.00 | 0.00 | 0.00 | 32 | 1020.3 |
| 20260502211148 | 78 | 71 | 2.0 | 4.0 | 0.00 | 0.00 | 0.00 | 33 | 1020.2 |
| 20260502210644 | 77 | 197 | 2.0 | 4.0 | 0.00 | 0.00 | 0.00 | 34 | 1020.4 |
| 20260502210142 | 76 | 32 | 3.0 | 4.0 | 0.00 | 0.00 | 0.00 | 34 | 1020.5 |
| 20260502205638 | 75 | 103 | 0.0 | 1.0 | 0.00 | 0.00 | 0.00 | 35 | 1020.6 |
| 20260502205135 | 75 | 351 | 2.0 | 6.0 | 0.00 | 0.00 | 0.00 | 36 | 1020.6 |
| 20260502204632 | 75 | 78 | 2.0 | 2.0 | 0.00 | 0.00 | 0.00 | 36 | 1020.6 |
| 20260502204130 | 75 | 170 | 3.0 | 4.0 | 0.00 | 0.00 | 0.00 | 35 | 1020.8 |
| 20260502203626 | 75 | 33 | 2.0 | 4.0 | 0.00 | 0.00 | 0.00 | 35 | 1020.8 |
| 20260502203124 | 74 | 165 | 1.0 | 4.0 | 0.00 | 0.00 | 0.00 | 36 | 1021.2 |
| 20260502202619 | 75 | 12 | 1.0 | 3.0 | 0.00 | 0.00 | 0.00 | 35 | 1021.0 |
| 20260502202118 | 73 | 51 | 0.0 | 2.0 | 0.00 | 0.00 | 0.00 | 36 | 1021.1 |
| 20260502201614 | 74 | 56 | 3.0 | 4.0 | 0.00 | 0.00 | 0.00 | 37 | 1021.2 |
| 20260502201110 | 74 | 34 | 2.0 | 3.0 | 0.00 | 0.00 | 0.00 | 36 | 1021.3 |
| 20260502200606 | 75 | 77 | 1.0 | 7.0 | 0.00 | 0.00 | 0.00 | 36 | 1021.3 |
| 20260502200104 | 74 | 23 | 3.0 | 6.0 | 0.00 | 0.00 | 0.00 | 36 | 1021.3 |
| 20260502195602 | 74 | 103 | 0.0 | 1.0 | 0.00 | 0.00 | 0.00 | 37 | 1021.3 |
| 20260502195057 | 73 | 84 | 1.0 | 7.0 | 0.00 | 0.00 | 0.00 | 39 | 1021.3 |
| 20260502194553 | 74 | 94 | 3.0 | 7.0 | 0.00 | 0.00 | 0.00 | 39 | 1021.4 |
| 20260502194044 | 73 | 100 | 0.0 | 6.0 | 0.00 | 0.00 | 0.00 | 39 | 1021.4 |
| 20260502193542 | 73 | 67 | 2.0 | 2.0 | 0.00 | 0.00 | 0.00 | 39 | 1021.5 |
| 20260502193039 | 72 | 93 | 2.0 | 6.0 | 0.00 | 0.00 | 0.00 | 39 | 1021.4 |
| 20260502192534 | 73 | 81 | 4.0 | 7.0 | 0.00 | 0.00 | 0.00 | 39 | 1021.5 |
| 20260502192032 | 73 | 95 | 3.0 | 6.0 | 0.00 | 0.00 | 0.00 | 38 | 1021.6 |
| 20260502191529 | 75 | 62 | 0.0 | 4.0 | 0.00 | 0.00 | 0.00 | 36 | 1021.5 |
| 20260502191027 | 73 | 197 | 1.0 | 1.0 | 0.00 | 0.00 | 0.00 | 35 | 1021.6 |
| 20260502190524 | 73 | 218 | 2.0 | 3.0 | 0.00 | 0.00 | 0.00 | 36 | 1021.6 |
| 20260502190021 | 72 | 80 | 0.0 | 4.0 | 0.00 | 0.00 | 0.00 | 40 | 1021.7 |
| 20260502185515 | 73 | 23 | 1.0 | 3.0 | 0.00 | 0.00 | 0.00 | 39 | 1021.8 |
| 20260502185013 | 72 | 32 | 2.0 | 4.0 | 0.00 | 0.00 | 0.00 | 38 | 1021.6 |